This demonstration page uses our WeatherBlox Daily Observations layout. Learn more.

Left ArrowRight Arrow

39.12711, -84.51439

Hourly Observations for June 2, 2021

Temp ( °F °C ) Dew Point ( °F °C ) Humidity (%) Winds ( mph kmh ) Pressure ( in mb ) Visibility ( mi km ) Precip ( " mm )
12:53 am 00:53 Cloudy with Light Rain 62 16.7 61 16.1 96 96 N N/A 30.13 1020 10 16 0.01 0.25
1:53 am 01:53 Cloudy with Mist and Fog 62 16.7 61 16.1 96 96 N N/A 30.12 1020 6 10 0.00 0.00
2:53 am 02:53 Cloudy with Light Rain 62 16.7 61 16.1 96 96 N N/A 30.10 1019 5 8 0.00 0.00
3:53 am 03:53 Cloudy 63 17.2 61 16.1 93 93 NNW 3 6 30.09 1019 10 16 0.00 0.00
4:53 am 04:53 Cloudy 63 17.2 61 16.1 93 93 N N/A 30.08 1019 9 14 0.01 0.25
5:53 am 05:53 Cloudy with Mist and Fog 62 16.7 61 16.1 96 96 E 3 6 30.07 1018 5 8 N/A
6:53 am 06:53 Cloudy with Light Rain 62 16.7 61 16.1 96 96 N N/A 30.07 1018 4 6 0.00 0.00
7:53 am 07:53 Cloudy with Light Rain 63 17.2 61 16.1 93 93 NNE 5 7 30.07 1018 4 6 0.03 0.76
8:53 am 08:53 Cloudy with Light Rain 63 17.2 62 16.7 97 97 N N/A 30.07 1018 4 6 0.03 0.76
9:53 am 09:53 Cloudy with Light Rain 64 17.8 62 16.7 93 93 N N/A 30.08 1019 4 6 0.04 1.02
10:53 am 10:53 Cloudy with Light Rain 65 18.3 62 16.7 90 90 N N/A 30.07 1018 7 11 0.02 0.51
11:53 am 11:53 Cloudy with Light Rain 66 18.9 63 17.2 90 90 S 5 7 30.06 1018 7 11 0.02 0.51
12:53 pm 12:53 Cloudy with Light Rain 67 19.4 63 17.2 87 87 SSE 7 11 30.05 1018 10 16 0.01 0.25
1:13 pm 13:13 Cloudy with Light Rain 67 19.4 63 17.2 87 87 S 6 9 30.05 1018 10 16 0.00 0.00
1:42 pm 13:42 Cloudy with Light Rain 67 19.4 63 17.2 87 87 SE 7 11 30.04 1017 8 13 0.02 0.51
1:53 pm 13:53 Cloudy with Light Rain 67 19.4 63 17.2 87 87 VRB 5 7 30.04 1017 10 16 0.02 0.51
2:53 pm 14:53 Cloudy 67 19.4 64 17.8 91 91 SSE 5 7 30.02 1017 10 16 0.01 0.25
3:53 pm 15:53 Cloudy with Light Rain 66 18.9 64 17.8 93 93 SE 7 11 29.99 1016 4 6 0.02 0.51
4:53 pm 16:53 Cloudy with Light Rain 66 18.9 63 17.2 90 90 SE 9 15 29.96 1015 4 6 0.03 0.76
5:19 pm 17:19 Cloudy with Light Rain 66 18.9 63 17.2 90 90 S 8 13 29.96 1015 3 4 0.02 0.51
5:53 pm 17:53 Cloudy with Light Rain 66 18.9 63 17.2 90 90 S 12 19 29.95 1014 3 4 0.05 1.27
6:53 pm 18:53 Cloudy with Mist and Fog 65 18.3 63 17.2 93 93 S 8 13 29.93 1014 3 5 0.01 0.25
7:53 pm 19:53 Cloudy with Light Rain 65 18.3 63 17.2 93 93 S 9 15 29.94 1014 4 6 0.02 0.51
8:53 pm 20:53 Cloudy with Mist and Fog 65 18.3 63 17.2 93 93 S 9 15 29.94 1014 4 6 0.01 0.25
9:53 pm 21:53 Cloudy 65 18.3 63 17.2 93 93 SSW 6 9 29.94 1014 10 16 N/A
10:53 pm 22:53 Cloudy 65 18.3 63 17.2 93 93 S 5 7 29.95 1014 9 14 N/A
11:53 pm 23:53 Cloudy 65 18.3 63 17.2 93 93 S 3 6 29.95 1014 10 16 N/A

Powered by AerisWeather